Weather History for Carson City, NV

Change the Weather History Date:

Wednesday, May 15, 2013

  Actual Average Record
Temperature  
Mean Temperature 60 °F -  
Max Temperature 73 °F 73 °F 84 °F (2012)
Min Temperature 46 °F 38 °F 46 °F (2012)
Degree Days  
Heating Degree Days 6    
Growing Degree Days 10 (Base 50)    
Moisture  
Dew Point 28 °F    
Average Humidity 34    
Maximum Humidity 71    
Minimum Humidity 9    
Precipitation  
Precipitation 0.00 in - - ()
Sea Level Pressure  
Sea Level Pressure 30.05 in    
Wind  
Wind Speed 5 mph (WSW)    
Max Wind Speed 18 mph    
Max Gust Speed 30 mph    
Visibility 10 miles    
Events      
Averages and records for this station are not official NWS values.
T = Trace of Precipitation, MM = Missing Value Source: NWS Daily Summary

Daily Weather History Graph

Daily Weather History Graph

Search for Another Location

Airport:

Trip Planner

Search our weather history database for the weather conditions in past years. The results will help you decide how hot, cold, wet, or windy it might be!

Date:

Astronomy

May. 15, 2013 Rise Set
Actual Time 5:45 AM PDT 8:05 PM PDT
Civil Twilight 5:15 AM PDT 8:36 PM PDT
Nautical Twilight 4:37 AM PDT 9:13 PM PDT
Astronomical Twilight 3:57 AM PDT 9:54 PM PDT
Moon 10:25 AM PDT (5/15) No Moon Set
Length of Visible Light 15h 20m
Length of Day
14h 20m
Waxing Crescent, 28% of the Moon is Illuminated
May 15
Waxing Crescent
May 17
First Quarter
May 24
Full
May 31
Last Quarter
Jun 8
New

Hourly Weather History & Observations

Time (PDT) Temp. Windchill Dew Point Humidity Pressure Visibility Wind Dir Wind Speed Gust Speed Precip Events Conditions
12:15 AM 57.2 °F - 39.2 °F 51% 30.08 in 10.0 mi Calm Calm - N/A   Clear
12:35 AM 55.4 °F - 39.2 °F 54% 30.08 in 10.0 mi Calm Calm - N/A   Clear
12:55 AM 55.4 °F - 39.2 °F 54% 30.08 in 10.0 mi Calm Calm - N/A   Clear
1:15 AM 55.4 °F - 41.0 °F 58% 30.08 in 10.0 mi Calm Calm - N/A   Clear
1:35 AM 55.4 °F - 41.0 °F 58% 30.08 in 10.0 mi Calm Calm - N/A   Clear
1:55 AM 53.6 °F - 39.2 °F 58% 30.08 in 10.0 mi Calm Calm - N/A   Clear
2:15 AM 53.6 °F - 39.2 °F 58% 30.07 in 10.0 mi WNW 3.5 mph - N/A   Clear
2:35 AM 53.6 °F - 39.2 °F 58% 30.07 in 10.0 mi Calm Calm - N/A   Clear
2:55 AM 55.4 °F - 39.2 °F 54% 30.08 in 10.0 mi Calm Calm - N/A   Clear
3:15 AM 51.8 °F - 39.2 °F 62% 30.08 in 10.0 mi Calm Calm - N/A   Clear
3:35 AM 51.8 °F - 39.2 °F 62% 30.07 in 10.0 mi SSW 3.5 mph - N/A   Clear
3:55 AM 51.8 °F - 39.2 °F 62% 30.08 in 10.0 mi Calm Calm - N/A   Clear
4:15 AM 50.0 °F - 37.4 °F 62% 30.08 in 10.0 mi Calm Calm - N/A   Clear
4:35 AM 50.0 °F - 37.4 °F 62% 30.08 in 10.0 mi Calm Calm - N/A   Clear
4:55 AM 48.2 °F - 37.4 °F 66% 30.08 in 10.0 mi Calm Calm - N/A   Clear
5:15 AM 46.4 °F 45.2 °F 37.4 °F 71% 30.08 in 10.0 mi NNW 3.5 mph - N/A   Clear
5:35 AM 48.2 °F - 37.4 °F 66% 30.08 in 10.0 mi Calm Calm - N/A   Clear
5:55 AM 48.2 °F - 37.4 °F 66% 30.08 in 10.0 mi Calm Calm - N/A   Clear
6:15 AM 48.2 °F - 37.4 °F 66% 30.09 in 10.0 mi Calm Calm - N/A   Clear
6:35 AM 50.0 °F - 39.2 °F 66% 30.09 in 10.0 mi Calm Calm - N/A   Clear
6:55 AM 50.0 °F - 39.2 °F 66% 30.09 in 10.0 mi Calm Calm - N/A   Clear
7:15 AM 53.6 °F - 39.2 °F 58% 30.08 in 10.0 mi Calm Calm - N/A   Clear
7:35 AM 55.4 °F - 37.4 °F 51% 30.08 in 10.0 mi West 3.5 mph - N/A   Clear
7:55 AM 57.2 °F - 33.8 °F 41% 30.08 in 10.0 mi WSW 3.5 mph - N/A   Clear
8:15 AM 59.0 °F - 35.6 °F 42% 30.08 in 10.0 mi West 3.5 mph - N/A   Clear
8:35 AM 60.8 °F - 35.6 °F 39% 30.08 in 10.0 mi SW 3.5 mph - N/A   Clear
8:55 AM 62.6 °F - 32.0 °F 32% 30.07 in 10.0 mi SSW 3.5 mph - N/A   Clear
9:15 AM 64.4 °F - 32.0 °F 30% 30.07 in 10.0 mi South 4.6 mph - N/A   Clear
9:35 AM 66.2 °F - 35.6 °F 32% 30.06 in 10.0 mi Calm Calm - N/A   Clear
9:55 AM 68.0 °F - 32.0 °F 26% 30.05 in 10.0 mi NNW 5.8 mph - N/A   Clear
10:15 AM 71.6 °F - 32.0 °F 23% 30.05 in 10.0 mi West 3.5 mph - N/A   Clear
10:35 AM 73.4 °F - 24.8 °F 16% 30.05 in 10.0 mi SW 9.2 mph 17.3 mph N/A   Clear
10:55 AM 73.4 °F - 23.0 °F 15% 30.05 in 10.0 mi SW 13.8 mph 18.4 mph N/A   Clear
11:15 AM 73.4 °F - 12.2 °F 10% 30.05 in 10.0 mi WSW 13.8 mph 25.3 mph N/A   Clear
11:35 AM 73.4 °F - 14.0 °F 10% 30.05 in 10.0 mi SW 15.0 mph 24.2 mph N/A   Clear
11:55 AM 73.4 °F - 14.0 °F 10% 30.04 in 10.0 mi WSW 16.1 mph 23.0 mph N/A   Clear
12:15 PM 73.4 °F - 14.0 °F 10% 30.04 in 10.0 mi SW 15.0 mph 23.0 mph N/A   Clear
12:35 PM 71.6 °F - 10.4 °F 9% 30.03 in 10.0 mi WSW 15.0 mph 24.2 mph N/A   Clear
12:55 PM 71.6 °F - 12.2 °F 10% 30.03 in 10.0 mi SW 16.1 mph 25.3 mph N/A   Clear
1:15 PM 71.6 °F - 15.8 °F 12% 30.03 in 10.0 mi SW 18.4 mph 27.6 mph N/A   Clear
1:35 PM 71.6 °F - 12.2 °F 10% 30.03 in 10.0 mi WSW 16.1 mph 26.5 mph N/A   Clear
1:55 PM 71.6 °F - 12.2 °F 10% 30.02 in 10.0 mi WSW 17.3 mph 26.5 mph N/A   Clear
2:35 PM 71.6 °F - 15.8 °F 12% 30.02 in 10.0 mi WSW 18.4 mph 27.6 mph N/A   Clear
2:55 PM 71.6 °F - 15.8 °F 12% 30.02 in 10.0 mi WSW 17.3 mph 26.5 mph N/A   Clear
3:15 PM 71.6 °F - 17.6 °F 13% 30.02 in 10.0 mi SW 18.4 mph 25.3 mph N/A   Clear
3:35 PM 71.6 °F - 21.2 °F 15% 30.02 in 10.0 mi WSW 15.0 mph 24.2 mph N/A   Clear
3:55 PM 71.6 °F - 19.4 °F 14% 30.02 in 10.0 mi WSW 18.4 mph 29.9 mph N/A   Clear
4:15 PM 71.6 °F - 21.2 °F 15% 30.02 in 10.0 mi West 15.0 mph 24.2 mph N/A   Clear
4:35 PM 71.6 °F - 17.6 °F 13% 30.02 in 10.0 mi West 17.3 mph 23.0 mph N/A   Clear
4:55 PM 71.6 °F - 19.4 °F 14% 30.02 in 10.0 mi West 16.1 mph 25.3 mph N/A   Clear
5:15 PM 71.6 °F - 19.4 °F 14% 30.02 in 10.0 mi West 13.8 mph 24.2 mph N/A   Clear
5:35 PM 71.6 °F - 19.4 °F 14% 30.02 in 10.0 mi West 18.4 mph 23.0 mph N/A   Clear
5:55 PM 69.8 °F - 17.6 °F 14% 30.02 in 10.0 mi West 16.1 mph 26.5 mph N/A   Clear
6:15 PM 68.0 °F - 15.8 °F 13% 30.02 in 10.0 mi West 15.0 mph 23.0 mph N/A   Clear
6:35 PM 68.0 °F - 14.0 °F 12% 30.02 in 10.0 mi West 16.1 mph 24.2 mph N/A   Clear
6:55 PM 68.0 °F - 12.2 °F 12% 30.02 in 10.0 mi West 15.0 mph 21.9 mph N/A   Clear
7:15 PM 66.2 °F - 14.0 °F 13% 30.02 in 10.0 mi WSW 15.0 mph 23.0 mph N/A   Clear
7:35 PM 66.2 °F - 14.0 °F 13% 30.03 in 10.0 mi West 17.3 mph 27.6 mph N/A   Clear
7:55 PM 64.4 °F - 17.6 °F 16% 30.04 in 10.0 mi West 16.1 mph 27.6 mph N/A   Clear
8:15 PM 62.6 °F - 23.0 °F 22% 30.04 in 10.0 mi West 15.0 mph 24.2 mph N/A   Clear
8:35 PM 62.6 °F - 24.8 °F 24% 30.05 in 10.0 mi West 12.7 mph 23.0 mph N/A   Clear
8:55 PM 60.8 °F - 26.6 °F 27% 30.06 in 10.0 mi West 5.8 mph 19.6 mph N/A   Clear
9:15 PM 60.8 °F - 28.4 °F 29% 30.07 in 10.0 mi WSW 4.6 mph - N/A   Clear
9:35 PM 59.0 °F - 28.4 °F 31% 30.07 in 10.0 mi Calm Calm - N/A   Clear
9:55 PM 59.0 °F - 28.4 °F 31% 30.07 in 10.0 mi SSE 3.5 mph - N/A   Clear
10:15 PM 57.2 °F - 32.0 °F 38% 30.07 in 10.0 mi SE 4.6 mph - N/A   Clear
10:35 PM 59.0 °F - 28.4 °F 31% 30.06 in 10.0 mi SE 4.6 mph - N/A   Clear
10:55 PM 55.4 °F - 30.2 °F 38% 30.06 in 10.0 mi East 4.6 mph - N/A   Clear
11:15 PM 53.6 °F - 30.2 °F 41% 30.06 in 10.0 mi East 3.5 mph - N/A   Clear
11:35 PM 55.4 °F - 32.0 °F 41% 30.06 in 10.0 mi East 5.8 mph - N/A   Clear
11:55 PM 53.6 °F - 32.0 °F 44% 30.06 in 10.0 mi ESE 4.6 mph - N/A   Clear